Change the Weather History Date:

Tuesday, February 11, 2014

  Actual Average Record
Temperature  
Mean Temperature 12 °F 26 °F  
Max Temperature 20 °F 34 °F 59 °F (1981)
Min Temperature 3 °F 19 °F -10 °F (1962)
Degree Days  
Heating Degree Days 53 39  
Month to date heating degree days 463 435  
Since 1 July heating degree days 4352 4208  
Cooling Degree Days 0 0  
Month to date cooling degree days 0 0  
Year to date cooling degree days 0 0  
Moisture  
Dew Point 1 °F    
Average Humidity 66    
Maximum Humidity 88    
Minimum Humidity 43    
Precipitation  
Precipitation 0.00 in 0.11 in 0.85 in (1981)
Month to date precipitation 1.42 1.24  
Year to date precipitation 4.52 4.73  
Sea Level Pressure  
Sea Level Pressure 30.29 in    
Wind  
Wind Speed 10 mph (West)    
Max Wind Speed 23 mph    
Max Gust Speed 29 mph    
Visibility 10 miles    
Events      
T = Trace of Precipitation, MM = Missing Value Source: NWS Daily Summary

Daily Weather History Graph

Daily Weather History Graph

Search for Another Location

Airport or City:

Trip Planner

Search our weather history database for the weather conditions in past years. The results will help you decide how hot, cold, wet, or windy it might be!

Date:

Astronomy

Feb. 11, 2014 Rise Set
Actual Time 6:49 AM EST 5:14 PM EST
Civil Twilight 6:20 AM EST 5:43 PM EST
Nautical Twilight 5:47 AM EST 6:16 PM EST
Astronomical Twilight 5:14 AM EST 6:49 PM EST
Moon 2:31 PM EST (2/11) 4:25 AM EST (2/11)
Length of Visible Light 11h 23m
Length of Day
10h 25m
Waxing Gibbous, 90% of the Moon is Illuminated
Feb 11
Waxing Gibbous
Feb 14
Full
Feb 22
Last Quarter
Mar 1
New
Mar 8
First Quarter

Hourly Weather History & Observations

Time (EST) Temp. Windchill Dew Point Humidity Pressure Visibility Wind Dir Wind Speed Gust Speed Precip Events Conditions
12:54 AM 10.0 °F -2.9 °F 1.9 °F 70% 30.21 in 10.0 mi West 9.2 mph - N/A   Clear
1:54 AM 9.0 °F -3.2 °F 1.9 °F 73% 30.21 in 10.0 mi WSW 8.1 mph - N/A   Clear
2:54 AM 9.0 °F -4.2 °F 3.0 °F 77% 30.22 in 10.0 mi West 9.2 mph - N/A   Clear
3:54 AM 8.1 °F -4.3 °F 3.0 °F 80% 30.22 in 10.0 mi West 8.1 mph - N/A   Clear
4:54 AM 7.0 °F -3.3 °F 3.0 °F 84% 30.24 in 10.0 mi West 5.8 mph - N/A   Clear
5:54 AM 6.1 °F -5.6 °F 3.0 °F 87% 30.25 in 10.0 mi West 6.9 mph - N/A   Clear
6:54 AM 5.0 °F -6.9 °F 1.9 °F 87% 30.26 in 10.0 mi WSW 6.9 mph - N/A   Clear
7:54 AM 8.1 °F -6.2 °F 3.0 °F 80% 30.28 in 10.0 mi West 10.4 mph - N/A   Clear
8:54 AM 10.9 °F -4.1 °F 3.0 °F 70% 30.29 in 10.0 mi West 12.7 mph - N/A   Clear
9:54 AM 12.9 °F -3.4 °F 1.0 °F 59% 30.30 in 10.0 mi West 16.1 mph - N/A   Clear
10:54 AM 14.0 °F -0.8 °F 1.9 °F 59% 30.30 in 10.0 mi WNW 13.8 mph 21.9 mph N/A   Clear
11:54 AM 16.0 °F 2.9 °F 1.9 °F 54% 30.28 in 10.0 mi WNW 11.5 mph - N/A   Clear
12:54 PM 17.1 °F 2.5 °F 1.0 °F 50% 30.26 in 10.0 mi West 15.0 mph 21.9 mph N/A   Clear
1:54 PM 19.0 °F 6.8 °F -0.0 °F 43% 30.25 in 10.0 mi WNW 11.5 mph 21.9 mph N/A   Clear
2:54 PM 19.0 °F 6.8 °F -0.0 °F 43% 30.25 in 10.0 mi West 11.5 mph - N/A   Clear
3:54 PM 19.0 °F 7.5 °F -0.0 °F 43% 30.27 in 10.0 mi WNW 10.4 mph - N/A   Clear
4:54 PM 17.1 °F 5.0 °F -0.0 °F 47% 30.30 in 10.0 mi WNW 10.4 mph - N/A   Clear
5:54 PM 14.0 °F 0.5 °F -0.9 °F 52% 30.33 in 10.0 mi WNW 11.5 mph - N/A   Clear
6:54 PM 12.0 °F -0.4 °F -0.9 °F 56% 30.35 in 10.0 mi WNW 9.2 mph - N/A   Clear
7:54 PM 10.9 °F -2.6 °F -0.9 °F 59% 30.37 in 10.0 mi West 10.4 mph - N/A   Clear
8:54 PM 10.0 °F -1.9 °F -0.9 °F 61% 30.38 in 10.0 mi West 8.1 mph - N/A   Clear
9:54 PM 9.0 °F -3.2 °F -0.9 °F 64% 30.41 in 10.0 mi WNW 8.1 mph - N/A   Clear
10:54 PM 7.0 °F -4.5 °F -0.9 °F 70% 30.41 in 10.0 mi NW 6.9 mph - N/A   Clear
11:54 PM 8.1 °F -5.3 °F -0.9 °F 67% 30.42 in 10.0 mi NW 9.2 mph - N/A   Clear